Previsão horária em Abertura

Hoje, 12 Abril, Segunda-feira

Tempo Temperatura Precipitação Vento Pressão Humidade
00:00 +11°C° 0 mm 1 m/s 731 mmHg 87%
01:00 +11°C° 0 mm 1 m/s 731 mmHg 88%
02:00 +11°C° 0 mm 1 m/s 731 mmHg 89%
03:00 +10°C° 0 mm 1 m/s 731 mmHg 90%
04:00 +10°C° 0 mm 1 m/s 732 mmHg 89%
05:00 +10°C° 0 mm 1 m/s 732 mmHg 88%
06:00 +9°C° 0 mm 2 m/s 732 mmHg 86%
07:00 +12°C° 0 mm 2 m/s 732 mmHg 77%
08:00 +12°C° 0 mm 3 m/s 733 mmHg 67%
09:00 +14°C° 0 mm 3 m/s 733 mmHg 57%
10:00 +17°C° 0 mm 3 m/s 733 mmHg 53%
11:00 +18°C° 0 mm 3 m/s 733 mmHg 48%
12:00 +20°C° 0 mm 2 m/s 733 mmHg 44%
13:00 +20°C° 0 mm 2 m/s 733 mmHg 42%
14:00 +20°C° 0 mm 2 m/s 733 mmHg 41%
15:00 +22°C° 0 mm 1 m/s 732 mmHg 39%
16:00 +21°C° 0 mm 1 m/s 732 mmHg 44%
17:00 +20°C° 0 mm 1 m/s 732 mmHg 50%
18:00 +19°C° 0 mm 1 m/s 732 mmHg 55%
19:00 +18°C° 0 mm 1 m/s 732 mmHg 56%
20:00 +16°C° 0 mm 1 m/s 733 mmHg 57%
21:00 +15°C° 0 mm 1 m/s 733 mmHg 58%
22:00 +15°C° 0 mm 1 m/s 733 mmHg 57%
23:00 +15°C° 0 mm 1 m/s 733 mmHg 56%

Amanhã, 13 Abril, Terça-feira

Tempo Temperatura Precipitação Vento Pressão Humidade
00:00 +15°C° 0 mm 1 m/s 733 mmHg 55%
01:00 +15°C° 0 mm 1 m/s 732 mmHg 55%
02:00 +15°C° 0 mm 1 m/s 732 mmHg 56%
03:00 +15°C° 0 mm 1 m/s 732 mmHg 56%
04:00 +15°C° 0 mm 1 m/s 732 mmHg 57%
05:00 +14°C° 0 mm 1 m/s 732 mmHg 58%
06:00 +13°C° 0 mm 0 m/s 732 mmHg 59%
07:00 +15°C° 0 mm 1 m/s 732 mmHg 60%
08:00 +15°C° 0 mm 1 m/s 733 mmHg 61%
09:00 +16°C° 0 mm 1 m/s 733 mmHg 63%
10:00 +16°C° 0 mm 0 m/s 733 mmHg 59%
11:00 +17°C° 0 mm 0 m/s 733 mmHg 56%
12:00 +19°C° 0 mm 0 m/s 733 mmHg 53%
13:00 +21°C° 0 mm 1 m/s 732 mmHg 51%
14:00 +22°C° 0 mm 1 m/s 732 mmHg 50%
15:00 +23°C° 0 mm 1 m/s 731 mmHg 48%
16:00 +22°C° 0 mm 1 m/s 731 mmHg 52%
17:00 +21°C° 0 mm 1 m/s 731 mmHg 57%
18:00 +21°C° 0 mm 1 m/s 731 mmHg 61%
19:00 +18°C° 0 mm 2 m/s 731 mmHg 63%
20:00 +16°C° 0 mm 2 m/s 731 mmHg 66%
21:00 +15°C° 0 mm 2 m/s 731 mmHg 69%
22:00 +14°C° 0 mm 2 m/s 731 mmHg 69%
23:00 +14°C° 0 mm 2 m/s 730 mmHg 70%

Depois de amanhã, 14 Abril, Quarta-feira

Tempo Temperatura Precipitação Vento Pressão Humidade
00:00 +13°C° 0 mm 1 m/s 730 mmHg 71%
01:00 +13°C° 0 mm 1 m/s 730 mmHg 72%
02:00 +13°C° 0 mm 1 m/s 729 mmHg 73%
03:00 +13°C° 0 mm 1 m/s 729 mmHg 74%
04:00 +13°C° 0 mm 1 m/s 729 mmHg 75%
05:00 +13°C° 0 mm 1 m/s 729 mmHg 76%
06:00 +13°C° 0 mm 1 m/s 729 mmHg 77%
07:00 +14°C° 0 mm 1 m/s 729 mmHg 72%
08:00 +16°C° 0 mm 2 m/s 729 mmHg 66%
09:00 +18°C° 0 mm 2 m/s 729 mmHg 61%
10:00 +20°C° 0.1 mm 2 m/s 729 mmHg 58%
11:00 +21°C° 0.1 mm 2 m/s 728 mmHg 54%
12:00 +23°C° 0.1 mm 2 m/s 728 mmHg 50%
13:00 +24°C° 0.4 mm 2 m/s 727 mmHg 50%
14:00 +24°C° 0.4 mm 2 m/s 727 mmHg 51%
15:00 +24°C° 0.4 mm 2 m/s 726 mmHg 51%
16:00 +21°C° 0.4 mm 2 m/s 726 mmHg 59%
17:00 +19°C° 0.4 mm 3 m/s 726 mmHg 67%
18:00 +17°C° 0.4 mm 4 m/s 726 mmHg 74%
19:00 +16°C° 1 mm 3 m/s 726 mmHg 80%
20:00 +15°C° 1 mm 2 m/s 727 mmHg 86%
21:00 +14°C° 1 mm 2 m/s 727 mmHg 92%
22:00 +14°C° 0.2 mm 1 m/s 727 mmHg 93%
23:00 +14°C° 0.2 mm 1 m/s 727 mmHg 93%

15 Abril, Quinta-feira

Tempo Temperatura Precipitação Vento Pressão Humidade
00:00 +13°C° 0.2 mm 0 m/s 726 mmHg 94%
01:00 +14°C° 0.1 mm 1 m/s 726 mmHg 94%
02:00 +14°C° 0.1 mm 1 m/s 726 mmHg 94%
03:00 +14°C° 0.1 mm 1 m/s 726 mmHg 95%
04:00 +14°C° 0.2 mm 1 m/s 726 mmHg 94%
05:00 +14°C° 0.2 mm 1 m/s 726 mmHg 94%
06:00 +13°C° 0.2 mm 1 m/s 726 mmHg 94%
07:00 +14°C° 0.2 mm 1 m/s 726 mmHg 93%
08:00 +14°C° 0.2 mm 1 m/s 726 mmHg 91%
09:00 +14°C° 0.2 mm 2 m/s 727 mmHg 90%
10:00 +15°C° 0.1 mm 2 m/s 727 mmHg 83%
11:00 +16°C° 0.1 mm 2 m/s 727 mmHg 76%
12:00 +17°C° 0.1 mm 2 m/s 727 mmHg 68%
13:00 +18°C° 0.1 mm 3 m/s 726 mmHg 66%
14:00 +18°C° 0.1 mm 3 m/s 726 mmHg 63%
15:00 +18°C° 0.1 mm 3 m/s 726 mmHg 61%
16:00 +18°C° 0 mm 3 m/s 726 mmHg 63%
17:00 +17°C° 0 mm 3 m/s 726 mmHg 64%
18:00 +17°C° 0 mm 4 m/s 727 mmHg 66%
19:00 +14°C° 0 mm 3 m/s 727 mmHg 70%
20:00 +13°C° 0 mm 2 m/s 728 mmHg 74%
21:00 +12°C° 0 mm 2 m/s 728 mmHg 78%
22:00 +12°C° 0 mm 2 m/s 728 mmHg 77%
23:00 +12°C° 0 mm 2 m/s 728 mmHg 77%

16 Abril, Sexta-feira

Tempo Temperatura Precipitação Vento Pressão Humidade
00:00 +12°C° 0 mm 1 m/s 728 mmHg 76%
01:00 +12°C° 0 mm 1 m/s 728 mmHg 76%
02:00 +11°C° 0 mm 1 m/s 728 mmHg 76%
03:00 +11°C° 0 mm 1 m/s 728 mmHg 77%
04:00 +11°C° 0 mm 1 m/s 728 mmHg 78%
05:00 +10°C° 0 mm 0 m/s 728 mmHg 79%
06:00 +9°C° 0 mm 0 m/s 728 mmHg 80%
07:00 +11°C° 0 mm 0 m/s 729 mmHg 74%
08:00 +14°C° 0 mm 1 m/s 729 mmHg 67%
09:00 +16°C° 0 mm 1 m/s 729 mmHg 60%
10:00 +19°C° 0 mm 1 m/s 729 mmHg 57%
11:00 +19°C° 0 mm 2 m/s 729 mmHg 53%
12:00 +21°C° 0 mm 3 m/s 728 mmHg 50%
13:00 +21°C° 0.1 mm 3 m/s 728 mmHg 50%
14:00 +21°C° 0.1 mm 4 m/s 727 mmHg 50%
15:00 +22°C° 0.1 mm 5 m/s 727 mmHg 51%
16:00 +21°C° 0.2 mm 4 m/s 727 mmHg 56%
17:00 +20°C° 0.2 mm 3 m/s 727 mmHg 62%
18:00 +19°C° 0.2 mm 3 m/s 727 mmHg 67%
19:00 +18°C° 0.3 mm 2 m/s 727 mmHg 72%
20:00 +16°C° 0.3 mm 2 m/s 727 mmHg 77%
21:00 +15°C° 0.3 mm 1 m/s 727 mmHg 82%
22:00 +14°C° 0.1 mm 1 m/s 727 mmHg 83%
23:00 +14°C° 0.1 mm 2 m/s 727 mmHg 84%

17 Abril, Sábado

Tempo Temperatura Precipitação Vento Pressão Humidade
00:00 +13°C° 0.1 mm 2 m/s 728 mmHg 85%
01:00 +12°C° 0 mm 2 m/s 728 mmHg 83%
02:00 +10°C° 0 mm 3 m/s 728 mmHg 80%
03:00 +9°C° 0 mm 3 m/s 728 mmHg 77%
04:00 +8°C° 0 mm 3 m/s 729 mmHg 76%
05:00 +7°C° 0 mm 2 m/s 729 mmHg 75%
06:00 +6°C° 0 mm 2 m/s 729 mmHg 73%
07:00 +8°C° 0 mm 2 m/s 730 mmHg 64%
08:00 +10°C° 0 mm 2 m/s 730 mmHg 54%
09:00 +13°C° 0 mm 2 m/s 731 mmHg 45%
10:00 +15°C° 0 mm 2 m/s 731 mmHg 41%
11:00 +16°C° 0 mm 2 m/s 730 mmHg 37%
12:00 +19°C° 0 mm 1 m/s 730 mmHg 33%
13:00 +20°C° 0 mm 1 m/s 730 mmHg 32%
14:00 +21°C° 0 mm 1 m/s 730 mmHg 30%
15:00 +21°C° 0 mm 1 m/s 730 mmHg 29%
16:00 +20°C° 0 mm 1 m/s 730 mmHg 34%
17:00 +19°C° 0 mm 1 m/s 730 mmHg 39%
18:00 +18°C° 0 mm 1 m/s 730 mmHg 45%
19:00 +16°C° 0 mm 1 m/s 731 mmHg 45%
20:00 +14°C° 0 mm 1 m/s 731 mmHg 45%
21:00 +13°C° 0 mm 1 m/s 731 mmHg 46%
22:00 +12°C° 0 mm 1 m/s 731 mmHg 47%
23:00 +12°C° 0 mm 1 m/s 732 mmHg 48%
Mostrar mais